| time (UTC) | temp C | wind direction | speed KPH | gust KPH | rain 1hr cm | rain 24hr cm | rain mn cm | humidity % | barometer mb |
| 20260505113427 | -17 | 121 | 24.1 | 35.4 | 0.00 | 0.00 | 0.00 | 1026.6 | |
| 20260505112927 | -17 | 124 | 24.1 | 33.8 | 0.00 | 0.00 | 0.00 | 1026.5 | |
| 20260505111912 | -17 | 114 | 24.1 | 33.8 | 0.00 | 0.00 | 0.00 | 1026.5 | |
| 20260505111412 | -17 | 128 | 22.5 | 32.2 | 0.00 | 0.00 | 0.00 | 1026.5 | |
| 20260505110912 | -17 | 122 | 19.3 | 32.2 | 0.00 | 0.00 | 0.00 | 1026.7 | |
| 20260505110412 | -17 | 113 | 17.7 | 30.6 | 0.00 | 0.00 | 0.00 | 1026.6 | |
| 20260505101856 | -17 | 110 | 14.5 | 24.1 | 0.00 | 0.00 | 0.00 | 1026.2 | |
| 20260505101356 | -17 | 94 | 14.5 | 22.5 | 0.00 | 0.00 | 0.00 | 1026.3 | |
| 20260505100856 | -17 | 97 | 11.3 | 20.9 | 0.00 | 0.00 | 0.00 | 1026.3 | |
| 20260505100356 | -17 | 48 | 11.3 | 19.3 | 0.00 | 0.00 | 0.00 | 1026.1 | |
| 20260505095856 | -17 | 95 | 11.3 | 22.5 | 0.00 | 0.00 | 0.00 | 1025.9 | |
| 20260505095356 | -17 | 109 | 9.7 | 22.5 | 0.00 | 0.00 | 0.00 | 1026.0 | |
| 20260505094856 | -17 | 124 | 16.1 | 27.4 | 0.00 | 0.00 | 0.00 | 1025.9 | |
| 20260505094356 | -17 | 116 | 17.7 | 25.7 | 0.00 | 0.00 | 0.00 | 1025.8 | |
| 20260505093856 | -17 | 118 | 12.9 | 24.1 | 0.00 | 0.00 | 0.00 | 1025.7 | |
| 20260505093355 | -17 | 107 | 11.3 | 24.1 | 0.00 | 0.00 | 0.00 | 1026.1 | |
| 20260505092854 | -17 | 97 | 16.1 | 24.1 | 0.00 | 0.00 | 0.00 | 1026.0 | |
| 20260505092353 | -17 | 71 | 11.3 | 22.5 | 0.00 | 0.00 | 0.00 | 1025.6 | |
| 20260505091853 | -17 | 92 | 11.3 | 19.3 | 0.00 | 0.00 | 0.00 | 1025.7 | |
| 20260505091353 | -17 | 54 | 8.0 | 19.3 | 0.00 | 0.00 | 0.00 | 1025.6 | |
| 20260505090852 | -17 | 81 | 9.7 | 20.9 | 0.00 | 0.00 | 0.00 | 1025.9 | |
| 20260505090352 | -17 | 111 | 12.9 | 20.9 | 0.00 | 0.00 | 0.00 | 1025.4 | |
| 20260505085852 | -17 | 85 | 9.7 | 22.5 | 0.00 | 0.00 | 0.00 | 1025.3 | |
| 20260505085352 | -17 | 95 | 11.3 | 24.1 | 0.00 | 0.00 | 0.00 | 1025.5 | |
| 20260505084852 | -17 | 87 | 12.9 | 24.1 | 0.00 | 0.00 | 0.00 | 1025.0 | |
| 20260505084352 | -17 | 89 | 9.7 | 22.5 | 0.00 | 0.00 | 0.00 | 1025.3 | |
| 20260505083852 | -17 | 125 | 14.5 | 22.5 | 0.00 | 0.00 | 0.00 | 1025.1 | |
| 20260505082837 | -17 | 99 | 9.7 | 20.9 | 0.00 | 0.00 | 0.00 | 1025.3 | |
| 20260505082337 | -17 | 89 | 11.3 | 24.1 | 0.00 | 0.00 | 0.00 | 1025.3 | |
| 20260505081837 | -17 | 105 | 16.1 | 25.7 | 0.00 | 0.00 | 0.00 | 1025.1 | |
| 20260505081337 | -17 | 117 | 14.5 | 30.6 | 0.00 | 0.00 | 0.00 | 1025.0 | |
| 20260505080837 | -17 | 121 | 16.1 | 32.2 | 0.00 | 0.00 | 0.00 | 1025.2 | |
| 20260505080337 | -17 | 118 | 22.5 | 32.2 | 0.00 | 0.00 | 0.00 | 1025.0 | |
| 20260505075836 | -17 | 114 | 20.9 | 30.6 | 0.00 | 0.00 | 0.00 | 1024.8 | |
| 20260505075335 | -17 | 124 | 16.1 | 30.6 | 0.00 | 0.00 | 0.00 | 1024.9 | |
| 20260505074835 | -17 | 128 | 19.3 | 30.6 | 0.00 | 0.00 | 0.00 | 1024.8 | |
| 20260505074335 | -17 | 114 | 17.7 | 30.6 | 0.00 | 0.00 | 0.00 | 1024.8 | |
| 20260505073835 | -17 | 119 | 16.1 | 30.6 | 0.00 | 0.00 | 0.00 | 1024.7 | |
| 20260505073335 | -17 | 119 | 19.3 | 30.6 | 0.00 | 0.00 | 0.00 | 1024.9 | |
| 20260505072835 | -17 | 120 | 17.7 | 30.6 | 0.00 | 0.00 | 0.00 | 1024.9 | |
| 20260505071820 | -17 | 124 | 17.7 | 32.2 | 0.00 | 0.00 | 0.00 | 1024.9 | |
| 20260505070805 | -17 | 129 | 17.7 | 32.2 | 0.00 | 0.00 | 0.00 | 1024.9 | |
| 20260505070305 | -17 | 122 | 20.9 | 30.6 | 0.00 | 0.00 | 0.00 | 1024.9 | |
| 20260505065805 | -17 | 125 | 17.7 | 33.8 | 0.00 | 0.00 | 0.00 | 1025.1 | |
| 20260505065305 | -17 | 118 | 17.7 | 33.8 | 0.00 | 0.00 | 0.00 | 1024.9 | |
| 20260505064250 | -17 | 107 | 14.5 | 22.5 | 0.00 | 0.00 | 0.00 | 1025.0 | |
| 20260505062720 | -17 | 98 | 12.9 | 30.6 | 0.00 | 0.00 | 0.00 | 1025.2 | |
| 20260505061705 | -17 | 114 | 16.1 | 24.1 | 0.00 | 0.00 | 0.00 | 1025.7 | |
| 20260505061205 | -17 | 93 | 12.9 | 25.7 | 0.00 | 0.00 | 0.00 | 1025.3 | |
| 20260505060149 | -17 | 83 | 14.5 | 32.2 | 0.00 | 0.00 | 0.00 | 1025.3 | |
| 20260505055648 | -17 | 92 | 17.7 | 32.2 | 0.00 | 0.00 | 0.00 | 1025.2 | |
| 20260505055148 | -17 | 98 | 17.7 | 32.2 | 0.00 | 0.00 | 0.00 | 1025.2 | |
| 20260505054648 | -17 | 99 | 12.9 | 32.2 | 0.00 | 0.00 | 0.00 | 1025.3 | |
| 20260505054148 | -17 | 81 | 12.9 | 24.1 | 0.00 | 0.00 | 0.00 | 1025.2 | |
| 20260505053648 | -17 | 85 | 12.9 | 25.7 | 0.00 | 0.00 | 0.00 | 1025.3 | |
| 20260505053148 | -17 | 95 | 12.9 | 25.7 | 0.00 | 0.00 | 0.00 | 1025.3 | |
| 20260505052647 | -17 | 98 | 14.5 | 24.1 | 0.00 | 0.00 | 0.00 | 1025.3 | |
| 20260505052146 | -17 | 112 | 14.5 | 25.7 | 0.00 | 0.00 | 0.00 | 1025.6 | |
| 20260505051645 | -17 | 94 | 16.1 | 25.7 | 0.00 | 0.00 | 0.00 | 1025.6 | |
| 20260505051145 | -17 | 103 | 14.5 | 25.7 | 0.00 | 0.00 | 0.00 | 1025.7 | |
| 20260505050644 | -17 | 110 | 17.7 | 24.1 | 0.00 | 0.00 | 0.00 | 1025.7 | |
| 20260505050144 | -17 | 110 | 14.5 | 32.2 | 0.00 | 0.00 | 0.00 | 1025.6 | |
| 20260505041642 | -17 | 96 | 14.5 | 24.1 | 0.00 | 0.00 | 0.00 | 1026.1 | |
| 20260505040627 | -17 | 83 | 14.5 | 24.1 | 0.00 | 0.00 | 0.00 | 1025.7 | |
| 20260505040127 | -17 | 82 | 11.3 | 25.7 | 0.00 | 0.00 | 0.00 | 1025.8 | |
| 20260505035627 | -17 | 120 | 17.7 | 27.4 | 0.00 | 0.00 | 0.03 | 1026.1 | |
| 20260505035127 | -17 | 122 | 17.7 | 30.6 | 0.00 | 0.00 | 0.03 | 1025.8 | |
| 20260505034111 | -17 | 119 | 17.7 | 33.8 | 0.00 | 0.00 | 0.03 | 1026.0 | |
| 20260505033611 | -17 | 122 | 20.9 | 33.8 | 0.00 | 0.00 | 0.03 | 1025.9 | |
| 20260505033111 | -17 | 129 | 20.9 | 33.8 | 0.00 | 0.00 | 0.03 | 1026.0 | |
| 20260505032610 | -17 | 117 | 16.1 | 25.7 | 0.00 | 0.00 | 0.03 | 1026.2 | |
| 20260505032110 | -17 | 122 | 16.1 | 30.6 | 0.00 | 0.00 | 0.03 | 1026.2 | |
| 20260505031610 | -17 | 127 | 19.3 | 30.6 | 0.00 | 0.00 | 0.03 | 1026.3 | |
| 20260505030038 | -17 | 111 | 14.5 | 27.4 | 0.00 | 0.00 | 0.03 | 1026.1 | |
| 20260505025538 | -17 | 113 | 16.1 | 27.4 | 0.00 | 0.00 | 0.03 | 1026.2 | |
| 20260505024522 | -17 | 115 | 11.3 | 20.9 | 0.00 | 0.00 | 0.03 | 1026.6 | |
| 20260505024022 | -17 | 88 | 8.0 | 20.9 | 0.00 | 0.00 | 0.03 | 1026.4 | |
| 20260505023521 | -17 | 87 | 6.4 | 20.9 | 0.00 | 0.00 | 0.03 | 1026.2 | |
| 20260505022506 | -17 | 90 | 11.3 | 24.1 | 0.00 | 0.00 | 0.03 | 1026.7 | |
| 20260505021451 | -17 | 125 | 16.1 | 24.1 | 0.00 | 0.00 | 0.03 | 1026.6 | |
| 20260505020951 | -17 | 105 | 17.7 | 25.7 | 0.00 | 0.00 | 0.03 | 1026.1 | |
| 20260505020451 | -17 | 123 | 17.7 | 25.7 | 0.00 | 0.00 | 0.03 | 1026.2 | |
| 20260505015950 | -17 | 113 | 17.7 | 30.6 | 0.00 | 0.00 | 0.03 | 1026.4 | |
| 20260505015450 | -17 | 121 | 19.3 | 30.6 | 0.00 | 0.00 | 0.03 | 1026.5 | |
| 20260505014950 | -17 | 120 | 16.1 | 25.7 | 0.00 | 0.00 | 0.03 | 1026.4 | |
| 20260505014450 | -17 | 124 | 16.1 | 27.4 | 0.00 | 0.00 | 0.03 | 1026.3 | |
| 20260505013950 | -17 | 124 | 19.3 | 27.4 | 0.00 | 0.00 | 0.03 | 1026.3 | |
| 20260505013449 | -17 | 121 | 17.7 | 24.1 | 0.00 | 0.00 | 0.03 | 1026.5 | |
| 20260505012949 | -17 | 118 | 17.7 | 24.1 | 0.00 | 0.00 | 0.03 | 1026.0 | |
| 20260505011419 | -17 | 123 | 12.9 | 24.1 | 0.00 | 0.00 | 0.03 | 1026.3 | |
| 20260505010919 | -17 | 107 | 12.9 | 24.1 | 0.00 | 0.00 | 0.03 | 1026.2 | |
| 20260505010419 | -17 | 105 | 12.9 | 25.7 | 0.00 | 0.00 | 0.03 | 1026.1 | |
| 20260505005919 | -17 | 124 | 14.5 | 25.7 | 0.00 | 0.00 | 0.03 | 1026.1 | |
| 20260505005419 | -17 | 122 | 17.7 | 25.7 | 0.00 | 0.00 | 0.03 | 1026.1 | |
| 20260505004919 | -17 | 116 | 17.7 | 25.7 | 0.00 | 0.00 | 0.03 | 1026.2 | |
| 20260505004419 | -17 | 120 | 12.9 | 24.1 | 0.00 | 0.00 | 0.03 | 1026.2 | |
| 20260505003403 | -17 | 115 | 17.7 | 27.4 | 0.00 | 0.00 | 0.03 | 1025.7 | |
| 20260505002902 | -17 | 123 | 20.9 | 27.4 | 0.00 | 0.00 | 0.03 | 1025.7 | |
| 20260505002402 | -17 | 108 | 20.9 | 27.4 | 0.00 | 0.00 | 0.03 | 1025.5 | |
| 20260505001902 | -17 | 122 | 14.5 | 24.1 | 0.00 | 0.00 | 0.03 | 1025.5 | |
| 20260505000847 | -17 | 138 | 8.0 | 25.7 | 0.00 | 0.00 | 0.03 | 1025.4 | |
| 20260505000347 | -17 | 129 | 12.9 | 25.7 | 0.00 | 0.00 | 0.03 | 1025.6 | |
| 20260504235847 | -17 | 116 | 11.3 | 20.9 | 0.00 | 0.00 | 0.03 | 1025.3 | |
| 20260504235347 | -17 | 134 | 8.0 | 20.9 | 0.00 | 0.00 | 0.03 | 1025.4 | |
| 20260504234847 | -17 | 138 | 9.7 | 22.5 | 0.00 | 0.00 | 0.03 | 1025.2 | |
| 20260504234347 | -17 | 134 | 11.3 | 22.5 | 0.00 | 0.00 | 0.03 | 1025.4 | |
| 20260504233848 | -17 | 135 | 11.3 | 17.7 | 0.00 | 0.00 | 0.03 | 1025.4 | |
| 20260504233347 | -17 | 138 | 9.7 | 17.7 | 0.00 | 0.00 | 0.03 | 1025.6 | |
| 20260504232847 | -17 | 128 | 8.0 | 17.7 | 0.00 | 0.00 | 0.03 | 1025.4 | |
| 20260504232348 | -17 | 129 | 11.3 | 19.3 | 0.00 | 0.00 | 0.03 | 1025.2 | |
| 20260504231848 | -17 | 144 | 8.0 | 19.3 | 0.00 | 0.00 | 0.03 | 1025.2 | |
| 20260504231348 | -17 | 128 | 9.7 | 19.3 | 0.00 | 0.00 | 0.03 | 1025.0 | |
| 20260504230847 | -17 | 103 | 11.3 | 20.9 | 0.00 | 0.00 | 0.03 | 1025.1 | |
| 20260504230347 | -17 | 114 | 11.3 | 20.9 | 0.00 | 0.00 | 0.03 | 1024.9 | |
| 20260504225848 | -17 | 117 | 12.9 | 17.7 | 0.00 | 0.00 | 0.03 | 1025.1 | |
| 20260504225347 | -17 | 114 | 11.3 | 22.5 | 0.00 | 0.00 | 0.03 | 1025.1 | |
| 20260504224848 | -17 | 115 | 8.0 | 22.5 | 0.00 | 0.00 | 0.03 | 1024.8 | |
| 20260504224347 | -17 | 124 | 8.0 | 22.5 | 0.00 | 0.00 | 0.03 | 1025.1 | |
| 20260504223332 | -17 | 119 | 14.5 | 22.5 | 0.00 | 0.00 | 0.03 | 1024.5 | |
| 20260504222833 | -17 | 110 | 9.7 | 25.7 | 0.00 | 0.00 | 0.03 | 1024.8 | |
| 20260504222332 | -17 | 106 | 11.3 | 19.3 | 0.00 | 0.00 | 0.03 | 1024.6 | |
| 20260504221833 | -17 | 114 | 6.4 | 19.3 | 0.00 | 0.00 | 0.03 | 1024.7 | |
| 20260504220818 | -17 | 134 | 8.0 | 24.1 | 0.00 | 0.00 | 0.03 | 1024.4 | |
| 20260504220318 | -17 | 126 | 12.9 | 24.1 | 0.00 | 0.00 | 0.03 | 1024.1 | |
| 20260504215817 | -17 | 116 | 9.7 | 22.5 | 0.00 | 0.00 | 0.03 | 1024.0 | |
| 20260504214803 | -17 | 129 | 12.9 | 24.1 | 0.00 | 0.00 | 0.03 | 1024.2 | |
| 20260504214303 | -17 | 132 | 14.5 | 27.4 | 0.00 | 0.00 | 0.03 | 1024.1 | |
| 20260504213802 | -17 | 106 | 12.9 | 27.4 | 0.00 | 0.00 | 0.03 | 1023.6 | |
| 20260504213302 | -17 | 115 | 12.9 | 25.7 | 0.00 | 0.00 | 0.03 | 1024.1 | |
| 20260504212248 | -17 | 126 | 8.0 | 22.5 | 0.00 | 0.00 | 0.03 | 1023.7 | |
| 20260504211748 | -17 | 115 | 14.5 | 27.4 | 0.00 | 0.00 | 0.03 | 1023.9 | |
| 20260504211248 | -17 | 110 | 17.7 | 27.4 | 0.00 | 0.00 | 0.03 | 1023.8 | |
| 20260504210748 | -17 | 119 | 16.1 | 27.4 | 0.00 | 0.00 | 0.03 | 1023.9 | |
| 20260504210248 | -17 | 105 | 16.1 | 27.4 | 0.00 | 0.00 | 0.03 | 1024.0 | |
| 20260504205747 | -17 | 103 | 17.7 | 27.4 | 0.00 | 0.00 | 0.03 | 1023.8 | |
| 20260504205248 | -17 | 110 | 17.7 | 30.6 | 0.00 | 0.00 | 0.03 | 1024.1 | |
| 20260504204748 | -17 | 108 | 17.7 | 30.6 | 0.00 | 0.00 | 0.03 | 1024.0 | |
| 20260504204248 | -17 | 114 | 20.9 | 30.6 | 0.00 | 0.00 | 0.03 | 1023.6 | |
| 20260504203747 | -17 | 117 | 20.9 | 30.6 | 0.00 | 0.00 | 0.03 | 1023.6 | |
| 20260504203248 | -17 | 110 | 16.1 | 30.6 | 0.00 | 0.00 | 0.03 | 1023.6 | |
| 20260504202748 | -17 | 118 | 19.3 | 30.6 | 0.00 | 0.00 | 0.03 | 1023.4 | |
| 20260504202247 | -17 | 123 | 16.1 | 25.7 | 0.00 | 0.00 | 0.03 | 1023.6 | |
| 20260504201748 | -17 | 115 | 17.7 | 25.7 | 0.00 | 0.00 | 0.03 | 1023.7 | |
| 20260504201248 | -17 | 123 | 12.9 | 20.9 | 0.00 | 0.00 | 0.03 | 1023.6 | |
| 20260504200233 | -17 | 115 | 14.5 | 24.1 | 0.00 | 0.00 | 0.03 | 1023.7 | |
| 20260504195733 | -17 | 120 | 14.5 | 24.1 | 0.00 | 0.00 | 0.03 | 1024.0 | |
| 20260504195233 | -17 | 86 | 8.0 | 24.1 | 0.00 | 0.00 | 0.03 | 1023.8 | |
| 20260504194733 | -17 | 90 | 12.9 | 25.7 | 0.00 | 0.00 | 0.03 | 1023.7 | |
| 20260504193718 | -17 | 114 | 17.7 | 25.7 | 0.00 | 0.00 | 0.03 | 1024.0 | |
| 20260504193218 | -17 | 100 | 12.9 | 27.4 | 0.00 | 0.00 | 0.03 | 1024.1 | |
| 20260504192718 | -17 | 99 | 17.7 | 27.4 | 0.00 | 0.00 | 0.03 | 1024.3 | |
| 20260504192217 | -17 | 93 | 11.3 | 22.5 | 0.00 | 0.00 | 0.03 | 1024.3 | |
| 20260504191717 | -17 | 47 | 8.0 | 17.7 | 0.00 | 0.00 | 0.03 | 1024.1 | |
| 20260504191217 | -17 | 66 | 4.8 | 20.9 | 0.00 | 0.00 | 0.03 | 1024.3 | |
| 20260504190717 | -17 | 83 | 4.8 | 20.9 | 0.00 | 0.00 | 0.03 | 1024.3 | |
| 20260504190217 | -17 | 87 | 8.0 | 19.3 | 0.00 | 0.00 | 0.03 | 1024.3 | |
| 20260504185716 | -17 | 84 | 8.0 | 19.3 | 0.00 | 0.00 | 0.03 | 1024.3 | |
| 20260504184701 | -17 | 34 | 9.7 | 20.9 | 0.00 | 0.00 | 0.03 | 1024.1 | |
| 20260504184201 | -17 | 57 | 8.0 | 19.3 | 0.00 | 0.00 | 0.03 | 1024.2 | |
| 20260504183146 | -17 | 91 | 11.3 | 27.4 | 0.00 | 0.00 | 0.03 | 1024.5 | |
| 20260504182131 | -17 | 99 | 8.0 | 25.7 | 0.00 | 0.00 | 0.03 | 1024.4 | |
| 20260504181631 | -17 | 80 | 9.7 | 25.7 | 0.00 | 0.00 | 0.03 | 1024.7 | |
| 20260504181130 | -17 | 92 | 8.0 | 25.7 | 0.00 | 0.00 | 0.03 | 1024.6 | |
| 20260504180630 | -17 | 93 | 9.7 | 22.5 | 0.00 | 0.00 | 0.03 | 1024.6 | |
| 20260504180130 | -17 | 107 | 11.3 | 24.1 | 0.00 | 0.00 | 0.03 | 1024.4 | |
| 20260504175630 | -17 | 88 | 9.7 | 24.1 | 0.03 | 0.00 | 0.03 | 1024.6 | |
| 20260504175130 | -17 | 122 | 12.9 | 27.4 | 0.03 | 0.00 | 0.03 | 1024.7 | |
| 20260504174630 | -17 | 122 | 12.9 | 27.4 | 0.03 | 0.00 | 0.03 | 1024.9 | |
| 20260504173100 | -17 | 93 | 9.7 | 30.6 | 0.03 | 0.00 | 0.03 | 1024.8 | |
| 20260504172045 | -17 | 89 | 14.5 | 24.1 | 0.03 | 0.00 | 0.03 | 1025.3 | |
| 20260504171545 | -17 | 86 | 11.3 | 24.1 | 0.03 | 0.00 | 0.03 | 1025.2 | |
| 20260504171045 | -17 | 75 | 8.0 | 22.5 | 0.03 | 0.00 | 0.03 | 1025.4 | |
| 20260504170545 | -17 | 97 | 14.5 | 27.4 | 0.03 | 0.00 | 0.03 | 1025.7 | |
| 20260504160443 | -17 | 116 | 16.1 | 24.1 | 0.00 | 0.00 | 0.00 | 1026.1 | |
| 20260504150912 | -17 | 127 | 17.7 | 30.6 | 0.00 | 0.00 | 0.00 | 1026.1 | |
| 20260504150412 | -17 | 113 | 17.7 | 33.8 | 0.00 | 0.00 | 0.00 | 1026.6 | |
| 20260504140326 | -17 | 89 | 14.5 | 27.4 | 0.00 | 0.00 | 0.00 | 1026.5 | |
| 20260504130739 | -17 | 81 | 8.0 | 19.3 | 0.00 | 0.00 | 0.00 | 1026.6 | |
| 20260504130239 | -17 | 55 | 6.4 | 22.5 | 0.00 | 0.00 | 0.00 | 1027.0 | |
| 20260504120208 | -17 | 44 | 8.0 | 24.1 | 0.00 | 0.00 | 0.00 | 1026.4 |